Theta_e
285 287 287 286 286 288 287 287 283 287 287 290 294 296 300 301 303 314 316 319 320 321 322 324 324 325 325 323 322 321 322 321 320 321 322 322 322 322 323 323 324 325 326 325
283 288 288 286 288 288 289 290 288 289 288 295 297 299 303 310 310 314 317 319 321 322 323 323 324 324 324 321 321 322 322 321 322 322 322 321 322 322 321 321 324 323 323 320
279 286 285 282 287 288 289 291 289 285 290 297 297 299 303 310 311 315 318 320 320 321 323 324 324 325 321 319 319 321 322 324 325 323 322 321 322 321 319 319 319 318 317 317
279 283 275 287 296 294 291 292 292 293 293 296 297 300 311 312 311 316 319 320 321 322 323 324 323 321 319 318 320 322 323 324 324 324 322 322 321 319 317 316 318 315 315 314
279 280 285 288 293 292 291 291 300 301 303 306 308 309 310 314 315 316 320 322 322 323 323 323 319 318 319 318 321 322 324 324 324 324 322 322 320 318 316 316 316 314 314 313
281 278 277 286 293 295 294 286 300 301 302 302 306 301 304 312 316 316 321 322 322 323 323 321 318 318 316 318 321 321 323 324 324 323 323 321 319 318 317 318 321 318 315 312
281 280 285 289 291 294 286 288 297 302 303 302 302 306 310 314 317 320 322 322 322 322 320 320 317 317 315 319 320 322 324 324 324 323 322 321 319 318 318 321 322 318 315 312
284 282 280 293 290 289 294 299 300 302 303 303 306 311 312 316 318 321 320 321 323 320 319 317 318 318 314 317 321 322 323 324 323 322 325 322 320 318 318 316 316 314 315 311
284 285 294 296 292 299 301 300 300 302 303 304 306 310 312 314 317 319 321 321 323 320 316 316 318 318 314 315 316 322 322 322 321 323 323 321 319 321 320 316 318 317 317 316
289 292 292 297 298 300 302 301 303 304 303 305 306 311 312 313 315 320 321 321 320 316 316 315 317 317 317 314 317 322 320 321 322 322 320 320 321 322 320 318 318 319 318 316
290 294 295 298 297 299 300 302 302 304 304 304 309 311 312 313 317 319 321 323 319 317 317 317 317 316 315 315 319 320 321 322 323 321 321 319 321 320 320 317 318 319 321 318
288 294 293 294 298 300 299 299 302 302 303 305 310 310 313 314 316 320 321 322 320 317 317 317 317 316 315 316 320 321 320 321 322 321 320 319 316 313 294 299 303 304 304 312
293 297 297 298 300 301 300 301 303 303 304 307 311 309 310 315 318 318 323 323 323 319 319 318 318 317 317 317 321 321 321 321 321 320 321 317 314 315 313 305 297 297 297 300
298 299 296 298 297 301 302 303 304 305 306 308 310 310 311 314 321 322 321 323 325 324 321 319 319 318 318 318 321 320 321 309 321 321 321 317 316 315 314 312 311 313 297 300
297 300 299 301 300 301 303 303 302 303 304 305 307 309 310 315 318 318 319 319 321 324 322 320 319 319 320 320 320 319 320 319 321 321 320 316 314 312 312 314 316 314 306 300
296 299 302 300 300 300 301 302 301 302 304 305 305 308 311 316 316 317 319 319 317 315 317 321 320 320 321 320 319 319 319 310 313 319 315 314 312 310 309 312 315 314 312 312
297 298 299 300 300 300 300 302 303 303 305 305 307 308 313 315 314 314 316 318 316 316 316 315 314 321 322 321 320 320 319 314 307 318 316 317 315 312 311 310 313 314 316 310
300 302 302 301 299 299 301 304 305 306 307 308 311 313 314 312 310 311 312 314 314 314 315 316 311 318 320 321 321 320 318 317 317 318 318 316 316 315 313 312 311 313 314 308
300 301 303 303 302 300 301 302 302 304 305 309 310 311 316 314 312 309 309 309 307 308 309 312 302 312 316 307 315 320 319 317 316 317 318 308 311 316 314 314 313 313 313 310
298 299 302 301 302 302 301 302 302 302 304 306 308 308 307 306 309 309 308 303 304 303 307 309 311 309 311 310 305 321 320 319 317 316 314 314 314 316 317 307 314 315 314 313
298 300 299 299 299 301 300 301 301 300 302 303 304 303 303 305 302 302 302 301 302 297 302 301 308 312 316 311 319 320 320 320 318 316 315 313 312 313 313 315 316 316 315 315
297 298 297 297 296 298 299 299 300 299 299 300 301 301 299 299 302 301 298 297 300 289 299 301 300 294 306 303 312 312 316 320 319 319 317 315 312 311 312 312 313 316 316 315
297 297 296 296 294 296 298 298 296 296 296 295 295 296 297 295 296 296 295 296 297 291 297 296 291 291 293 305 306 305 307 308 309 311 312 314 314 315 316 315 313 314 313 312
298 297 296 297 296 294 293 294 294 294 294 294 293 294 294 294 294 296 297 291 289 291 291 290 291 289 294 299 299 298 299 301 303 304 306 301 308 309 310 313 312 314 318 315
298 297 296 294 293 293 292 292 293 293 292 292 292 293 293 294 293 293 294 293 289 292 292 289 289 290 295 295 295 294 293 294 295 298 298 299 300 303 305 307 307 307 309 307
298 295 294 294 292 291 291 291 291 292 291 290 291 292 292 292 292 292 292 291 291 290 290 290 291 292 292 292 292 292 291 291 292 292 292 294 294 295 297 299 300 300 301 301
298 295 295 293 292 291 291 290 290 291 291 291 290 291 291 291 290 290 289 290 290 289 289 289 289 289 290 290 290 290 290 290 289 290 291 291 292 292 293 293 294 295 295 295
Wind_Speed
8 12 15 15 15 19 16 11 6 13 17 6 15 14 17 20 7 8 10 12 10 13 12 11 11 9 9 8 7 7 7 7 7 6 6 5 5 5 5 4 4 5 5 5
12 16 18 17 21 19 18 18 14 15 23 11 18 12 14 16 13 13 15 15 13 14 13 13 12 11 9 8 7 7 7 7 6 6 6 5 5 5 5 4 5 7 6 6
6 6 10 14 17 20 15 12 9 15 10 12 6 9 11 13 13 16 18 18 17 17 15 13 13 12 10 8 7 7 8 7 7 7 6 6 5 6 6 6 6 7 6 6
6 5 7 2 10 8 18 14 14 14 12 18 8 10 9 8 7 9 15 16 15 14 13 12 10 9 8 8 8 8 7 8 6 6 6 6 5 6 5 4 5 5 5 5
4 4 9 10 5 5 5 6 3 8 14 15 14 4 7 4 4 4 12 13 13 14 14 12 11 10 10 8 8 8 8 8 7 7 7 6 6 6 5 5 4 4 4 5
2 4 5 5 11 11 11 7 9 14 13 12 6 7 9 4 4 9 11 12 13 13 12 13 10 11 11 9 9 9 9 8 7 7 7 7 6 6 4 4 4 4 4 4
9 6 6 6 14 10 5 2 14 14 15 14 4 5 5 4 3 3 7 15 12 13 14 15 12 12 11 10 11 10 8 7 7 7 7 7 6 3 5 5 5 5 5 3
3 4 4 13 13 2 5 8 10 15 14 17 12 7 5 4 4 2 3 8 14 13 11 10 13 13 11 12 10 8 9 8 8 7 6 6 7 4 6 6 6 5 5 3
2 4 8 9 10 12 9 7 9 13 18 18 13 6 6 5 5 4 12 11 12 12 10 9 12 13 13 11 9 9 9 8 7 7 6 7 7 8 6 5 5 5 6 3
3 6 13 13 8 13 14 14 15 14 19 18 9 6 10 9 6 6 8 8 11 12 12 10 9 10 12 9 9 11 9 8 8 8 7 6 5 6 7 5 5 6 5 5
6 4 14 8 13 13 14 16 17 16 18 16 9 6 11 8 6 2 7 8 9 12 12 13 11 9 7 10 10 10 9 9 8 6 7 6 5 4 6 4 7 7 6 5
6 13 7 11 13 13 10 17 16 16 18 9 4 3 1 4 4 2 4 7 9 9 8 10 11 9 7 10 11 11 9 8 7 7 5 5 6 3 7 2 9 8 5 7
5 10 10 12 10 6 8 17 19 18 14 4 12 7 6 2 4 7 4 9 5 10 12 12 12 11 9 11 11 12 11 9 7 7 6 6 4 5 5 5 5 4 7 10
9 9 8 3 8 12 9 14 22 17 12 7 7 9 11 10 12 11 13 12 9 5 9 12 13 13 11 12 12 11 11 12 10 8 7 6 6 5 4 5 4 4 4 3
12 10 10 9 8 8 4 6 13 14 13 12 8 7 8 9 6 8 8 12 8 9 3 9 11 11 12 13 12 12 10 9 8 8 7 8 6 4 4 4 4 4 3 3
11 11 12 9 9 7 7 10 10 13 13 12 12 11 8 6 7 8 14 14 14 10 9 5 7 8 12 13 13 10 10 15 11 8 6 6 5 5 4 4 4 4 4 4
8 12 12 14 8 6 5 7 9 8 11 8 9 10 7 8 13 15 16 13 13 13 12 10 7 6 10 12 13 9 8 8 10 7 7 7 7 7 5 5 5 5 5 5
6 8 9 9 6 5 8 10 9 9 7 5 6 9 9 10 11 11 12 11 13 13 15 14 12 6 4 8 9 8 6 7 8 8 7 7 7 6 6 6 6 6 4 4
7 9 9 11 9 7 9 12 11 11 10 9 13 12 10 12 11 11 10 15 15 13 15 15 15 10 8 4 8 6 8 9 8 4 5 7 6 7 7 7 7 7 6 6
6 7 8 10 11 12 13 14 13 12 13 12 12 14 15 14 10 9 12 16 13 7 11 13 10 12 12 10 5 5 7 7 8 7 5 5 5 6 6 8 9 9 8 8
6 6 8 7 8 8 10 12 11 13 13 12 11 13 12 13 13 12 15 11 15 15 13 15 13 10 14 13 11 5 3 5 6 6 6 6 6 6 7 8 9 8 8 8
3 5 3 5 6 9 10 13 11 10 11 11 12 11 13 12 10 12 13 10 8 13 10 11 10 13 13 14 12 13 11 9 8 7 5 3 1 3 4 4 6 7 7 7
5 5 5 6 6 8 9 11 11 11 11 13 13 11 10 9 7 7 9 13 9 12 10 10 15 19 21 15 11 12 13 14 12 10 10 9 10 9 7 5 3 3 3 4
6 6 5 6 6 6 9 9 7 10 12 11 11 11 7 5 7 7 7 9 10 12 14 14 17 17 16 11 13 13 12 11 10 10 10 10 10 8 8 9 9 9 9 9
6 5 6 5 5 4 8 6 8 9 9 9 11 10 11 8 8 7 7 8 13 12 12 14 16 16 12 12 12 12 11 10 11 10 10 10 10 10 9 9 10 10 9 10
7 5 5 5 3 3 3 5 8 8 7 8 8 9 9 9 9 8 9 10 12 13 12 11 12 11 12 12 12 12 11 12 11 11 11 11 11 10 10 10 10 10 10 10
6 7 7 5 3 3 4 6 8 8 8 8 10 9 9 9 10 10 11 12 11 11 11 10 10 11 11 12 11 11 10 10 13 11 12 11 11 10 10 10 9 9 9 10
Wind_Direction
248 265 269 262 262 269 257 244 211 268 269 284 283 288 302 289 255 183 168 165 187 151 152 154 152 155 158 158 160 148 144 151 162 158 150 141 135 139 142 164 177 156 130 124
271 258 258 274 263 246 245 247 252 260 273 252 263 275 304 301 285 196 183 171 174 155 156 159 161 162 162 165 162 150 148 147 147 145 139 141 135 132 129 128 118 112 115 123
258 283 319 268 235 219 228 214 216 243 245 252 258 279 298 305 302 197 179 169 172 166 162 163 166 166 167 167 146 148 142 149 156 149 143 145 136 131 127 128 110 107 115 117
273 287 250 293 8 207 220 213 221 239 259 256 248 266 268 270 301 189 176 168 171 165 160 162 155 156 148 144 152 145 142 143 146 153 141 138 135 128 121 115 116 121 130 128
260 242 282 282 40 17 345 268 18 302 276 298 233 232 265 274 13 262 185 173 170 162 158 155 154 150 151 146 146 148 150 153 164 152 142 145 145 148 130 126 116 131 127 144
245 279 291 25 4 354 322 259 9 320 316 329 321 204 238 297 7 336 155 171 167 161 156 156 156 148 147 153 152 160 161 166 161 147 147 152 145 149 131 133 129 121 128 136
248 254 251 21 314 311 216 331 314 324 319 322 248 217 294 297 310 323 208 167 153 158 167 169 152 149 154 156 167 173 154 143 144 145 148 144 140 133 129 122 114 118 124 122
277 251 269 8 324 16 277 296 330 326 324 317 309 295 302 212 209 269 237 188 162 162 171 161 156 154 156 173 171 150 145 146 144 149 145 140 138 121 122 125 123 123 133 122
241 257 243 269 285 287 328 352 338 329 321 316 303 320 13 351 10 292 218 178 169 164 151 159 161 162 164 180 148 146 147 144 142 140 130 138 133 148 138 129 141 151 161 143
283 257 254 322 300 343 353 344 334 329 321 303 296 349 27 346 15 185 159 170 157 149 153 156 163 168 178 150 152 151 149 140 143 144 136 131 126 158 160 153 156 170 171 162
265 310 328 34 335 339 335 336 330 320 313 310 299 18 22 333 315 17 145 134 151 158 165 167 160 161 152 149 148 152 152 149 152 141 144 137 132 161 167 178 179 176 185 170
309 320 313 304 310 317 334 311 308 323 309 292 334 51 329 307 287 296 102 130 139 152 155 160 167 161 149 154 151 147 149 151 155 148 145 148 157 134 40 55 179 185 164 146
283 298 292 289 293 301 353 313 316 316 304 359 22 3 27 241 360 350 43 89 104 175 180 162 171 168 158 160 152 155 158 158 148 147 154 160 160 168 161 32 74 190 189 171
285 308 296 311 306 318 332 318 317 322 359 40 10 343 7 29 30 15 31 29 18 161 174 183 174 177 163 159 159 163 160 158 161 162 164 166 180 186 151 164 174 171 64 182
321 333 299 301 297 329 353 312 312 338 354 14 7 7 26 58 51 14 37 41 28 56 106 183 185 177 164 159 163 161 155 164 167 164 170 173 171 168 170 158 168 147 115 83
317 320 332 331 326 335 342 337 341 341 349 358 351 344 22 50 51 59 50 42 46 31 13 338 206 177 167 162 163 162 169 165 163 165 154 159 163 162 161 165 153 162 166 158
339 338 350 339 340 341 324 317 322 327 326 342 331 334 27 35 46 30 33 42 44 36 33 26 345 327 179 165 165 167 164 163 164 162 169 174 174 177 170 159 169 173 195 172
303 317 338 9 356 350 347 16 21 3 5 344 22 33 59 65 60 44 30 29 29 24 19 7 356 349 97 157 163 153 149 163 169 175 170 172 183 178 173 174 174 181 190 163
353 338 353 18 15 21 25 22 16 12 1 42 53 42 81 57 63 55 50 44 33 17 352 352 341 13 30 32 151 146 145 152 168 181 183 177 168 177 178 181 189 196 185 166
7 2 14 19 17 21 27 19 16 15 13 25 59 53 51 40 40 54 60 52 30 358 333 350 5 27 11 360 270 131 139 152 168 176 158 163 184 196 190 191 192 194 190 189
4 14 26 24 32 24 42 35 23 16 15 28 44 58 52 56 37 36 46 44 11 356 350 2 20 40 34 13 32 31 101 159 168 166 158 170 179 188 197 200 203 200 199 202
69 98 55 10 21 37 26 47 28 34 28 31 40 46 56 39 28 50 49 40 19 355 17 20 14 22 57 51 37 32 34 47 54 54 45 27 207 210 220 206 213 214 208 204
92 94 69 52 31 54 49 57 37 37 45 37 39 44 58 55 30 31 35 4 27 23 39 29 14 29 43 42 41 39 32 37 37 36 44 45 45 38 28 8 334 330 306 251
107 98 66 43 50 48 57 56 63 54 53 50 45 44 45 61 52 41 48 18 17 38 36 16 22 30 49 44 40 41 38 30 27 31 32 43 43 31 26 25 17 12 18 21
122 114 106 74 41 49 62 49 66 61 59 60 58 50 50 46 58 45 45 43 35 48 44 28 35 39 48 47 45 42 35 30 26 27 28 32 33 24 24 19 26 15 15 17
141 124 114 105 97 101 102 93 84 73 73 67 57 49 48 47 50 56 56 51 51 52 49 40 37 46 48 46 47 45 41 30 28 31 30 30 28 26 21 17 19 21 14 14
110 110 108 91 55 51 88 90 84 73 64 59 65 53 51 49 48 55 58 60 55 53 51 48 43 44 50 54 50 45 41 40 36 35 34 30 28 26 22 20 21 19 17 19